Regional Weather Roundup
Issued by NWS Upton, NY

Current Version | Previous Version | Graphics & Text | Print | Product List | Glossary Off
Versions: 1 2 3 4 5 6 7 8 9 10 11 12 13 14 15 16 17 18 19 20 21 22 23 24 25 26 27 28 29 30 31 32 33 34 35 36 37 38 39 40 41 42 43 44 45 46 47 48 49 50

000
ASUS41 KOKX 290104
RWROKX

REGIONAL WEATHER ROUNDUP
NATIONAL WEATHER SERVICE NEW YORK NY
900 PM EDT FRI AUG 28 2015

NOTE: "FAIR" INDICATES FEW OR NO CLOUDS BELOW 12,000 FEET WITH NO
SIGNIFICANT WEATHER AND/OR OBSTRUCTIONS TO VISIBILITY.

NYZ071-072-176-178-NJZ106-104-290200-
NEW YORK CITY METRO AREA


CITY           SKY/WX    TMP DP  RH WIND       PRES   REMARKS
CENTRAL PARK   CLEAR     76  51  41 VRB3      30.20R
LAGUARDIA APRT PTCLDY    77  53  43 N7        30.16R
KENNEDY INTL   PTCLDY    74  62  66 S7        30.17R
NEWARK/LIBERTY PTCLDY    76  53  44 NW7       30.17R
BRNX BOT. GARD   N/A     72  52  49 CALM      30.17S
TETERBORO      CLEAR     73  51  46 N3        30.16R
$$

NYZ177-179-078>081-290200-
LONG ISLAND NEW YORK

CITY           SKY/WX    TMP DP  RH WIND       PRES   REMARKS
FARMINGDALE    CLEAR     72  59  63 SW6       30.17R
ISLIP          CLEAR     69  56  62 E3        30.15R
SHIRLEY        CLEAR     65  57  75 CALM      30.18R
WESTHAMPTON    CLEAR     62  55  77 CALM      30.18R
MONTAUK POINT    N/A     70  62  76 SW3       30.18R
$$

NYZ052-065-067-290200-
HUDSON VALLEY

CITY           SKY/WX    TMP DP  RH WIND       PRES   REMARKS
WHITE PLAINS   CLEAR     68  54  60 NW5       30.18R
NEWBURGH       PTCLDY    66  59  77 VRB5      30.19R
MONTGOMERY     CLEAR     68  55  63 NW5       30.18R
POUGHKEEPSIE   MOCLDY    67  57  70 CALM      30.16R
ALBANY         PTCLDY    64  54  69 W7        30.18R
$$

NJZ001-105-106-008-010-013-015-019>022-104-290200-
NEW JERSEY

CITY           SKY/WX    TMP DP  RH WIND       PRES   REMARKS
NEWARK/LIBERTY PTCLDY    76  53  44 NW7       30.17R
TETERBORO      CLEAR     73  51  46 N3        30.16R
CALDWELL       CLEAR     69  53  56 CALM      30.18R
MORRISTOWN     PTCLDY    63  57  82 CALM      30.19R
SOMERVILLE     CLEAR     65  57  75 NW3       30.16R
SUSSEX         CLEAR     60  55  83 CALM      30.19R
ANDOVER          N/A     60  57  89 CALM      30.20R
TRENTON        CLEAR     72  56  57 CALM      30.17R
MILLVILLE      CLEAR     66  59  78 W3        30.18R
ATLANTIC CITY  CLEAR     72  61  68 S6        30.17R
WRIGHTSTOWN    CLEAR     68  58  70 SE3       30.16R
TOMS RIVER     CLEAR     64  57  77 CALM      30.19R
BELMAR         CLEAR     70  55  60 SW3       30.18R
$$

PAZ047>061-062-071-290200-
EASTERN PENNSYLVANIA

CITY           SKY/WX    TMP DP  RH WIND       PRES   REMARKS
PHILADELPHIA   NOT AVBL
ALLENTOWN      CLEAR     68  55  63 N3        30.18R
SCRANTON       PTCLDY    66  55  67 E6        30.20R
$$

CTZ002-004>006-009-010-012-RIZ004-006-007-MAZ004-011-015-290200-
SOUTHERN NEW ENGLAND
 IN CT

CITY           SKY/WX    TMP DP  RH WIND       PRES   REMARKS
BRADLEY INTL   PTCLDY    66  58  75 NW6       30.15R
HARTFORD       MOCLDY    72  58  61 CALM      30.15R
DANBURY        CLEAR     63  55  75 SW5       30.19R
WTRBRY/OXFORD  CLEAR     63  50  63 CALM      30.20R
BRIDGEPORT     CLEAR     73  60  63 N3        30.16R
MERIDEN        CLEAR     66  56  70 CALM      30.16R
NEW HAVEN      PTCLDY    66  56  70 CALM      30.17R
CHESTER        NOT AVBL
GROTON         CLEAR     68  58  70 CALM      30.16R
WILLIMANTIC    CLEAR     66  58  75 CALM      30.16R

 IN RI

CITY           SKY/WX    TMP DP  RH WIND       PRES   REMARKS
PROVIDENCE     PTCLDY    69  58  67 W7        30.15R
BLOCK ISLAND   CLEAR     70  63  78 W7        30.17R
WESTERLY       CLEAR     68  63  84 SW3       30.17R

 IN MA

CITY           SKY/WX    TMP DP  RH WIND       PRES   REMARKS
BOSTON         PTCLDY    69  60  73 S5        30.15R
WORCESTER      CLEAR     65  53  65 W6        30.18R
WESTFIELD      CLEAR     63  60  90 CALM      30.16R
PROVINCETOWN   CLEAR     66  59  77 S7        30.15S
NANTUCKET      CLEAR     64  58  80 W3        30.16R
$$

ANZ330-335-338-340-345-350-353-355-290200-
COASTAL MARINE OBSERVATIONS


STATION/POSITION TIME  SKY/WX   TEMP    WIND        PRES    VSBY  WAVE
                                AIR SEA DIR/SP/G                  HT/PER
                 (UTC)          (F)     (DEG/KT/KT) (MB)    (MI)  (FT/S)
NY HARB ENTRANCE 0050            74 76  220/ 14/ 16 1021.0          3/10
4S FIRE IS       NOT AVBL
20S FIRE ISLAND  2350            74 75  150/  2/  4 1020.9          2/11
GREAT SOUTH BAY  0000            74 79  200/  6/  8   N/A
23SW MTP         0050            72 75  260/  6/  8 1021.2          3/11
HUDSON CANYON    NOT AVBL
KINGS POINT      NOT AVBL
EXECUTION ROCKS  0000            76     330/  2/  4   N/A
CENTRAL LI SOUND NOT AVBL
EASTERN LI SOUND 0000            72 71  260/  6/  8   N/A
ROBBINS REEF     NOT AVBL
$$


>>>>>>>>>>>>>>>>>>>>>>>>>>>> KEY <<<<<<<<<<<<<<<<<<<<<<<<<<<
>                                                          <
>     SKY/WX - SKY CONDITION/PRESENT WEATHER               <
>     TMP    - TEMPERATURE IN FAHRENHEIT                   <
>     DP     - DEWPOINT IN FAHRENHEIT                      <
>     RH     - RELATIVE HUMIDITY IN PERCENT                <
>     WIND   - DIRECTION AND SPEED IN MPH                  <
>     PRES   - MEAN SEA LEVEL PRESSURE IN INCHES OF HG     <
>     WCI    - WIND CHILL INDEX                            <
>     VSB    - VISIBILITY IN MILES                         <
>     HX     - HEAT INDEX                                  <
>     TC     - TEMPERATURE IN CELSIUS                      <
>     VRB    - VARIABLE WIND DIRECTION                     <
>                                                          <
>>>>>>>>>>>>>>>>>>>>>>>>>>>> KEY <<<<<<<<<<<<<<<<<<<<<<<<<<<




USA.gov is the U.S. government's official web portal to all federal, state and local government web resources and services.